#timestamp,LO_Frequency,Hit,StdDev 
1510743615.7,286046979.4,N
1510743635.5,286046979.8,N
1510743655.3,286046981.3,N
1510743675.1,286046979.4,N
1510743695.9,286046979.4,N
1510743715.7,286046977.6,N
1510743735.5,286046981.7,N
1510743755.4,286046981.1,N
1510743775.2,286046982.2,N
1510743795.0,286046984.6,N
1510743795.9,286046984.6,N
1510743815.8,286046986.4,N
1510743835.6,286046987.2,N
1510743855.4,286046990.3,N
1510743875.3,286046991.7,N
1510743895.1,286046992.0,N
1510743896.0,286046992.0,N
1510743915.8,286046994.4,N
1510743935.7,286046992.9,N
1510743955.5,286046991.7,N
1510743975.3,286046995.8,N
1510743995.2,286046997.5,N
1510744015.9,286046997.7,N
1510744035.7,286046999.6,N
1510744055.6,286047001.1,N
1510744075.4,286047000.7,N
1510744095.2,286046999.0,N
1510744115.0,286046997.9,N
1510744115.9,286046997.9,N
1510744135.8,286046995.9,N
1510744155.6,286046995.8,N
1510744175.4,286046995.9,N
1510744195.3,286046994.0,N
1510744215.1,286046993.0,N
1510744235.8,286046992.5,N
1510744255.7,286046991.3,N
1510744275.5,286046989.5,N
1510744295.3,286046985.0,N
1510744315.2,286046983.4,Y
1510744335.9,286046989.5,P
1510744355.7,286046991.1,P
1510744375.6,286046993.1,P
1510744395.4,286046993.2,Y
1510744415.2,286046995.0,P
1510744435.1,286046995.0,P
1510744436.0,286046995.0,P
1510744455.8,286046995.5,Y
1510744475.6,286046999.6,P
1510744495.5,286046998.6,N
1510744515.3,286046996.8,N
1510744535.1,286046998.6,N
1510744555.9,286047000.5,N
1510744575.7,286046999.9,N
1510744595.5,286047003.9,N
1510744615.4,286047002.9,N
1510744635.2,286047005.6,N
1510744655.0,286047005.9,N
1510744655.9,286047005.9,N
1510744675.7,286047004.6,N
1510744695.6,286047002.0,N
1510744715.4,286047002.5,N
1510744735.2,286047000.4,N
1510744755.1,286046999.3,N
1510744756.0,286046999.3,N
1510744775.8,286046996.7,N
1510744795.6,286046995.0,N
1510744815.5,286046997.5,N
1510744835.3,286046997.7,N
1510744855.1,286046993.3,N
1510744875.9,286046996.2,N
1510744895.7,286046997.8,N
1510744915.5,286046997.3,N
1510744935.3,286046997.3,N
1510744955.2,286046997.2,N
1510744975.0,286046998.1,N
1510744975.9,286046998.1,N
1510744995.7,286047003.1,N
1510745015.6,286047000.1,N
1510745035.4,286046998.7,N
1510745055.2,286046995.3,N
1510745075.1,286046998.6,N
1510745076.0,286046998.6,N
1510745095.8,286047002.1,N
1510745115.6,286046999.7,N
1510745135.5,286047007.2,N
1510745155.3,286047003.9,N
1510745175.1,286047001.3,N
1510745195.9,286047007.5,N
1510745215.7,286047003.0,N
1510745235.5,286046999.9,N
1510745255.4,286046999.6,N
1510745275.2,286046997.3,N
1510745295.0,286046995.4,N
1510745295.9,286046995.4,N
1510745315.7,286046997.6,N
1510745335.6,286046996.1,N
1510745355.4,286046994.9,N
1510745375.2,286047000.8,N
1510745395.1,286046998.7,N
1510745396.0,286046998.7,N
1510745415.8,286047001.1,N
1510745435.6,286047001.3,N
1510745455.5,286047002.6,N
1510745475.3,286047000.1,N
1510745495.1,286047001.4,N
1510745515.9,286047009.2,N
1510745535.7,286047009.2,N
1510745555.5,286047007.2,N
1510745575.4,286047003.9,N
1510745595.2,286047004.7,N
1510745615.0,286047005.5,N
1510745615.9,286047005.5,N
1510745635.8,286047003.3,N
1510745655.6,286047004.4,N
1510745675.4,286047002.2,N
1510745695.2,286046999.5,N
1510745715.1,286046997.1,N
1510745716.0,286046997.1,N
1510745735.8,286046995.3,N
1510745755.6,286046996.7,N
1510745775.5,286046995.4,N
1510745795.3,286046993.4,N
1510745815.1,286046994.0,N
1510745835.9,286046988.5,N
1510745855.7,286046988.9,N
1510745875.5,286046988.9,N
1510745895.4,286046990.7,N
1510745915.2,286046989.3,N
1510745935.0,286046987.9,N
1510745935.9,286046987.9,N
1510745955.8,286046981.7,N
1510745975.6,286046980.0,N
1510745995.4,286046979.1,N
1510746015.3,286046979.9,N
1510746035.1,286046979.9,N
1510746036.0,286046979.9,N
1510746055.8,286046978.0,N
1510746075.6,286046980.2,N
1510746095.5,286046982.0,N
1510746115.3,286046980.3,N
1510746135.1,286046980.0,N
1510746155.9,286046978.1,N
1510746175.7,286046976.4,N
1510746195.5,286046977.5,N
1510746215.4,286046977.5,N
1510746235.2,286046976.7,Y
1510746255.0,286046992.8,P
1510746255.9,286046992.8,N
1510746275.8,286046993.0,N
1510746295.6,286046991.7,N
1510746315.4,286046994.3,N
1510746335.3,286046995.6,N
1510746355.1,286047000.7,N
1510746356.0,286047000.7,N
1510746375.8,286047001.6,N
1510746395.7,286047002.0,N
1510746415.5,286046997.2,N
1510746435.3,286046996.1,N
1510746455.2,286046993.5,N
1510746475.9,286046996.2,N
1510746495.7,286046997.9,N
1510746515.5,286046998.3,N
1510746535.4,286046999.2,N
1510746555.2,286046998.2,N
1510746575.0,286047004.2,N
1510746575.9,286047004.2,N
1510746595.8,286047006.2,N
1510746615.6,286047012.4,N
1510746635.4,286047009.9,N
1510746655.3,286047008.8,N
1510746675.1,286047010.1,N
1510746676.0,286047010.1,N
1510746695.8,286047009.2,N
1510746715.7,286047009.4,N
1510746735.5,286047012.2,N
1510746755.3,286047014.5,N
1510746775.2,286047011.8,N
1510746795.9,286047013.8,N
1510746815.7,286047012.7,N
1510746835.5,286047011.4,N
1510746855.4,286047014.8,N
1510746875.2,286047018.4,N
1510746895.0,286047020.4,N
1510746895.9,286047020.4,N
1510746915.8,286047013.1,N
1510746935.6,286047015.0,N
1510746955.4,286047016.5,N
1510746975.3,286047015.0,N
1510746995.1,286047015.6,N
1510747015.8,286047017.0,N
1510747035.7,286047017.0,N
1510747055.5,286047014.6,N
1510747075.3,286047011.9,N
1510747095.2,286047010.7,N
1510747115.9,286047006.3,N
1510747135.7,286047002.9,N
1510747155.6,286047006.8,N
1510747175.4,286047006.8,N
1510747195.2,286047010.0,N
